Regional Weather Roundup
Issued by NWS Goodland, KS

Home | Current Version | Previous Version | Graphics & Text | Print | Product List | Glossary On
Versions: 1 2 3 4 5 6 7 8 9 10 11 12 13 14 15 16 17 18 19 20 21 22 23 24 25 26 27 28 29 30 31 32 33 34 35 36 37 38 39 40 41 42 43 44 45 46 47 48 49 50
912
ASUS43 KGLD 121859
RWRGLD

GOODLAND FORECAST AREA HOURLY WEATHER ROUNDUP
NATIONAL WEATHER SERVICE GOODLAND KS
1200 PM MST TUE DEC 12 2017

...OFFICIAL OBSERVATIONS...

CITY           SKY/WX    TMP DP  RH WIND       PRES   REMARKS
GOODLAND KS    SUNNY     60  15  17 NW10G23   30.21F
HILL CITY KS   SUNNY     54  19  25 W8        30.22F
IMPERIAL NEB   SUNNY     59  18  20 NW7       30.19F
MCCOOK NEB     SUNNY     48  22  35 W8        30.20F
AKRON CO       SUNNY    N/A N/A N/A MISG      30.23F
BURLINGTON CO  SUNNY     63  17  17 NW9       30.24F HAZE
LIMON CO       SUNNY     62  11  13 W6        30.27F
$$

...UNOFFICIAL OBSERVATIONS...

CITY           SKY/WX    TMP DP  RH WIND       PRES   REMARKS
LENORA KS        N/A     52  32  46 W7          N/A
NORTON KS      SUNNY     54  14  20 W8        30.20
SHARON SPRINGS   N/A     62  19  19 W8          N/A
TRENTON NEB      N/A     56  32  40 NW6         N/A
KIT CARSON CO    N/A     59  19  21 MISG        N/A
YUMA CO        FAIR      59  14  17 W15       30.22F
$$




USA.gov is the U.S. government's official web portal to all federal, state and local government web resources and services.